This is the latest recevied weather packets stored in our database for station/object KC3ELT-10. If no packets are shown the sender has not sent any weather packets the latest 10 day(s).
| Time | Temp. | Humidity | Pressure | Rain* | Wind** | Luminosity | Snow |
|---|---|---|---|---|---|---|---|
| 1777353778 | 8.33° C | 69% | 1017.5 hPa | 0 mm | 1.34 m/s, 202° | - | - |
| 1777353479 | 8.33° C | 69% | 1017.5 hPa | 0 mm | 0.45 m/s, 162° | - | - |
| 1777353179 | 8.33° C | 69% | 1017.7 hPa | 0 mm | 0.45 m/s, 168° | - | - |
| 1777352878 | 8.89° C | 69% | 1017.7 hPa | 0 mm | 0.89 m/s, 164° | - | - |
| 1777352578 | 8.89° C | 70% | 1017.7 hPa | 0 mm | 0.45 m/s, 179° | - | - |
| 1777352278 | 8.89° C | 71% | 1017.7 hPa | 0 mm | 0.89 m/s, 184° | - | - |
| 1777351978 | 8.89° C | 71% | 1017.7 hPa | 0 mm | 1.34 m/s, 168° | - | - |
| 1777351679 | 8.89° C | 71% | 1017.7 hPa | 0 mm | 0.45 m/s, 166° | - | - |
| 1777351379 | 8.89° C | 71% | 1017.6 hPa | 0 mm | 0.89 m/s, 184° | - | - |
| 1777351078 | 8.89° C | 71% | 1017.6 hPa | 0 mm | 1.34 m/s, 169° | - | - |
| 1777350779 | 8.89° C | 71% | 1017.6 hPa | 0 mm | 1.34 m/s, 153° | - | - |
| 1777350478 | 8.89° C | 70% | 1017.6 hPa | 0 mm | 0.89 m/s, 163° | - | - |
| 1777350179 | 9.44° C | 70% | 1017.6 hPa | 0 mm | 0.45 m/s, 191° | - | - |
| 1777349878 | 9.44° C | 70% | 1017.6 hPa | 0 mm | 1.79 m/s, 155° | - | - |
| 1777349578 | 9.44° C | 70% | 1017.8 hPa | 0 mm | 0.45 m/s, 161° | - | - |
| 1777349278 | 9.44° C | 69% | 1017.8 hPa | 0 mm | 0.45 m/s, 175° | - | - |
| 1777348978 | 9.44° C | 69% | 1017.8 hPa | 0 mm | 0.89 m/s, 192° | - | - |
| 1777348678 | 10° C | 68% | 1017.7 hPa | 0 mm | 0.45 m/s, 165° | - | - |
| 1777348378 | 10° C | 67% | 1017.7 hPa | 0 mm | 0 m/s | - | - |
| 1777348079 | 10° C | 67% | 1017.7 hPa | 0 mm | 0.45 m/s, 142° | - | - |
| 1777347778 | 10.56° C | 67% | 1017.9 hPa | 0 mm | 0 m/s | - | - |
| 1777347478 | 10.56° C | 66% | 1017.9 hPa | 0 mm | 0.45 m/s, 168° | - | - |
| 1777347178 | 11.11° C | 65% | 1017.9 hPa | 0 mm | 1.34 m/s, 176° | - | - |
| 1777346878 | 11.11° C | 64% | 1017.9 hPa | 0 mm | 0.89 m/s, 161° | - | - |
| 1777346579 | 11.67° C | 64% | 1017.9 hPa | 0 mm | 0.89 m/s, 143° | - | - |
* Rain latest hour (hover to see other rain measurements)
** Current wind speed in m/s (hover to see current wind gust speed)